Regional Weather Roundup
Issued by NWS San Diego, CA

Home | Current Version | Previous Version | Text Only | Print | Product List | Glossary On
Versions: 1 2 3 4 5 6 7 8 9 10 11 12 13 14 15 16 17 18 19 20 21 22 23 24 25 26 27 28 29 30 31 32 33 34 35 36 37 38 39 40 41 42 43 44 45 46 47 48 49 50
000
ASUS46 KSGX 231011
RWRSGX

SAN DIEGO HOURLY WEATHER ROUNDUP
NATIONAL WEATHER SERVICE SAN DIEGO CA
300 AM PDT WED AUG 23 2017

NOTE: "FAIR" INDICATES FEW OR NO CLOUDS BELOW 12,000 FEET WITH NO
SIGNIFICANT WEATHER AND/OR OBSTRUCTIONS TO VISIBILITY.

CAZ042-043-060-061-PZZ750-775-231100-

GREATER SAN DIEGO AREA

CITY           SKY/WX    TMP DP  RH WIND       PRES   REMARKS
SAN DIEGO AP   CLOUDY    69  63  81 W5        29.99S
NATIONAL CITY    N/A     68  65  89 SW3       30.00S
IMPERIAL BEACH CLOUDY    68  63  84 NW6       29.98S
BROWN FIELD    CLOUDY    67  64  90 W6        29.98S
MIRAMAR MCAS   CLOUDY    71  63  75 SW3       29.98S
MONTGOMERY FLD CLOUDY    69  63  81 NE3       29.98S
GILLESPIE FLD  CLOUDY    68  63  83 NW6       29.98S

$$

NORTH SAN DIEGO COUNTY

CITY           SKY/WX    TMP DP  RH WIND       PRES   REMARKS
CAMP PENDLETON CLOUDY    58  32  37 CALM      29.97S
OCEANSIDE AP   CLOUDY    69  64  84 CALM      29.96F
OCEANSIDE HBR    N/A     67  64  89 CALM      30.00S
VISTA            N/A     67  61  83 CALM      29.95S
CARLSBAD       CLOUDY    68  64  87 CALM      29.97S
DEL MAR          N/A     67  64  90 CALM      29.98F
LA JOLLA SCRIP   N/A     67  65  94 SW1       29.96F
FALLBROOK        N/A     65  65 100 CALM      29.98F
ESCONDIDO        N/A     67  64  88 SE2       29.98S
POWAY            N/A     68  63  84 CALM      29.98F

$$

EAST SAN DIEGO COUNTY

CITY           SKY/WX    TMP DP  RH WIND       PRES   REMARKS
RAMONA         CLOUDY    64  63  96 CALM      30.00S FOG
SANTEE LAKES     N/A     68  64  86 CALM      29.96F
LA MESA          N/A     67  63  88 CALM      29.91R
JAMUL            N/A     65  62  91 CALM      29.97R
DESCANSO N       N/A     63  44  50 NE3       29.85S
CAMPO            N/A     58  52  80 NE7       30.00F

$$

ORANGE COUNTY AND THE LOS ANGELES BASIN

CITY           SKY/WX    TMP DP  RH WIND       PRES   REMARKS
JOHN WAYNE AP  CLOUDY    68  64  87 SW3       29.97S
LAKE FOREST FR   N/A     64  60  85 CALM      29.86F
HUNTINGTON BCH   N/A     66  65  95 W3        29.98S
LOS ALAMITOS   MOCLDY    65  62  91 CALM      29.97S
FULLERTON      MOCLDY    68  64  87 CALM      29.96F
LONG BEACH     FAIR      68  64  87 N3        29.97S
L.A. AP        MOCLDY    68  64  87 W6        29.98S
L.A. DOWNTOWN  CLOUDY    69  63  81 CALM      29.97S

$$

THE INLAND EMPIRE

CITY           SKY/WX    TMP DP  RH WIND       PRES   REMARKS
CORONA         MOCLDY    65  63  93 W3        29.98F
CHINO          FAIR      66  61  84 W3        29.99F
ONTARIO        FAIR      67  61  81 W12       29.98F
SAN BERNARDINO FAIR      68  60  73 W3        29.99F
RIVERSIDE AP   MOCLDY    67  62  84 W3        29.98F
MORENO VALLEY    N/A     67  62  85 CALM      28.10S
MARCH ARB      FAIR      64  62  93 W3        29.99F
HORSETHIEF CYN   N/A     65  57  77 CALM      29.95F
PERRIS           N/A     66  60  81 SW3       29.98S
HEMET EAST       N/A     66  57  73 CALM      29.98S
FRENCH VALLEY  PTSUNNY   63  61  94 SE3       30.01S
TEMECULA         N/A     64  63  95 CALM      30.04S

$$

SAN BERNARDINO AND RIVERSIDE COUNTY MOUNTAINS

CITY           SKY/WX    TMP DP  RH WIND       PRES   REMARKS
BIG BEAR AP    FAIR      45  37  76 CALM      30.31S
PINE COVE        N/A     65  50  58 CALM      29.88F

$$

SOUTHERN DESERT INCLUDING THE COACHELLA VALLEY

CITY           SKY/WX    TMP DP  RH WIND       PRES   REMARKS
PALM SPRINGS   FAIR      85  58  39 CALM      29.84F
THOUSAND PALMS   N/A     91  50  24 NW13      29.79S
PALM DESERT      N/A     85  59  41 CALM      30.81S
THERMAL        FAIR      89  55  31 NW12      29.78S
BLYTHE         FAIR      91  58  32 S8        29.83S
IMPERIAL AP    FAIR      87  53  31 CALM      29.79S
EL CENTRO NAS  FAIR      86  48  26 SW7       29.81S
YUMA AZ        FAIR      89  66  46 SE7       29.82S

$$

UPPER DESERT

CITY           SKY/WX    TMP DP  RH WIND       PRES   REMARKS
VICTORVILLE AP FAIR      70  43  37 CALM      30.05S
HESPERIA         N/A     68  50  53 W5        30.00S
PALMDALE       FAIR      73  45  36 SW8       30.02S
LANCASTER      FAIR      73  41  31 W8        30.01S
EDWARDS AFB    CLEAR     71  43  36 S7        29.99R
DAGGETT        FAIR      78  45  30 W8        29.97R
29 PALMS N     FAIR      81  45  28 NW6       30.03R
NEEDLES        FAIR      88  47  24 CALM      29.87R

$$

REGIONAL REPORTS

CITY           SKY/WX    TMP DP  RH WIND       PRES   REMARKS
SANTA BARBARA  CLOUDY    64  61  90 E10       29.96S
SANDBERG       FAIR      69  41  36 SW5       30.15S
LAS VEGAS NV   MOCLDY    86  47  25 CALM      29.96S
PHOENIX AZ     MOCLDY    90  55  30 CALM      29.86S
TIJUANA        CLOUDY    66  63  88 CALM      30.00
ENSENADA NW      N/A     67  32  27 CALM      29.95S

$$

OFFSHORE ISLANDS

CITY           SKY/WX    TMP DP  RH WIND       PRES   REMARKS
CATALINA ARPT  FOG       59  59 100 SW7       30.01S VSB<1/4
SAN NICOLAS IS CLOUDY   N/A N/A N/A W13       29.99S

$$

MARINE AND OFFSHORE BUOY REPORTS

STATION/POSITION SKY/WX   TEMP    WIND        PRES    VSBY  SWELL
                          AIR SEA DIR/SP/G                  HT/PER/DIR
                          (F)     (DEG/KT/KT) (MB)    (MI)  (FT/S/D)
TANNER BANKS               65 66  300/ 12/ 16 1015.6F         3/210/14
S CLEMENTE BASIN           65 71  300/ 10/ 14 1015.4S         3/280/ 5
SAN NICOLAS IS.               64                N/A           2/240/11
SO. S. ROSA ISLA           62 64  300/ 16/ 21 1015.0S         3/280/11
W. S. BARBARA CH           60 62  320/ 17/ 21 1014.5
M. S. BARBARA CH           63 65  210/ 14/ 17 1015.1
S. MONICA BASIN               72  230/  8/ 12 1014.6S         2/190/10
S PEDRO CHANNEL               69                N/A           2/170/11
CMP PENDLETON NS              69                N/A           2/210/12
OCEANSIDE OFFSHR              70                N/A           2/210/11
TORREY PINES OTR              72                N/A           2/200/12
SAN DIEGO BAY                 74              1015.6R
POINT LOMA SOUTH              69                N/A           2/200/14

$$





USA.gov is the U.S. government's official web portal to all federal, state and local government web resources and services.